{"data":{"norad_id":59289,"epoch":"2026-05-24T22:29:38.392224Z","epoch_age_seconds":70575,"freshness":"FRESH","line1":"1 59289U 24053B   26144.93724991  .00041082  00000+0  55849-3 0  9996","line2":"2 59289  49.9880  55.0804 0001859 170.0960 190.0046 15.57126574117878","mean_motion":15.57126574,"eccentricity":0.0001859,"inclination_deg":49.988,"raan_deg":55.0804,"arg_perigee_deg":170.096,"mean_anomaly_deg":190.0046,"bstar":0.00055849,"rev_number":11787,"period_min":92.478031268895,"perigee_km":394.71866959852,"apogee_km":397.23728554718,"semimajor_km":6774.1149775728,"source":"CELESTRAK","updated_at":"2026-05-25T13:38:01.314003Z"}}